カタログに戻る

LUMIR T1

運用中アマチュア無線SSO
NORAD 56749·PAYLOAD·🇰🇷 South Korea

打ち上げ May 25, 2023 から Naro Space Center

Loading…

次のパス (今後24時間)

TLE

最新Source: Space-Track

元期: Sep 14, 2026, 21:08 UTC

1 56749U 23072G   26257.88063921  .00038789  00000-0  56520-3 0  9990
2 56749  97.4782 109.5935 0003495  42.6834 317.4691 15.55615285184388

AllMySatでLUMIR T1をリアルタイム追跡

Download on the App Store